Torna al catalogo

UFO 4

USA 108

AttivoMilitareGEO
NORAD 23467·PAYLOAD·🇺🇸 United States

Lanciato Jan 29, 1995 da Cape Canaveral Space Force Station

Loading…

TLE

AggiornatoSource: Space-Track

Epoca: Sep 14, 2026, 14:44 UTC

1 23467U 95003A   26257.61453414 -.00000028  00000-0  00000-0 0  9990
2 23467   9.6986  12.7813 0003092 158.3465 216.0911  1.00269109115858

Traccia UFO 4 in tempo reale con AllMySat

Download on the App Store